Weather Service Report


437 
ASUS45 KSLC 010110
RWRUT 
UTAH REGIONAL WEATHER ROUNDUP
NATIONAL WEATHER SERVICE SALT LAKE CITY UT
700 PM MDT FRI JUL 31 2015

UTZ001>011-023>025-010200-

NORTHERN UTAH
  
CITY           SKY/WX    TMP DP  RH WIND       PRES   REMARKS
BRIGHAM CITY   SUNNY     93  13   5 NE3       30.11S                  
HILL AFB       SUNNY     90  27  10 N5        30.15F                  
LOGAN          SUNNY     92  24   8 NW5       30.12F                  
OGDEN          SUNNY     91  27  10 W6        30.12F                  
PROVO AIRPORT  MOSUNNY   90  41  18 NW12      30.12F                  
SALT LAKE CITY MOSUNNY   92  22   8 N8        30.10F                  
VERNAL         MOSUNNY   91  13   5 E3        30.13F                  
WENDOVER       SUNNY     91  28  10 E7        30.10F                  
HEBER CITY     SUNNY     90  28  11 SW3       30.19S                  
WEST JORDAN    SUNNY     90  32  12 NW9       30.15F                  

$$

UTZ012>022-026-027-010200-

SOUTHERN/CENTRAL UTAH
  
CITY           SKY/WX    TMP DP  RH WIND       PRES   REMARKS
BLANDING       PTSUNNY   78  49  35 E12       30.32S                  
BRYCE CANYON   CLOUDY    74  40  29 SE12      30.38F                  
CEDAR CITY     CLOUDY    81  49  32 SW18G29   30.19F                  
DELTA          SUNNY     94  19   6 N14       30.12S                  
HANKSVILLE     MOSUNNY   95  32  11 CALM      30.07S HX  90           
MILFORD        SUNNY     95  32  11 NE10      30.11F HX  90           
MOAB/CYNLANDS  SUNNY     95  27   9 W9        30.06F                  
PRICE          MOSUNNY   91  16   6 W16G24    30.18F                  
ST GEORGE      CLEAR     93  48  21 SE23G29   30.02S HX  90           
KANAB          CLOUDY    81  52  36 NW5       30.24S                  

$$

REGIONAL REPORTS     COLORADO/ARIZONA
  
CITY           SKY/WX    TMP DP  RH WIND       PRES   REMARKS
CRAIG, CO      SUNNY     89  25  10 W3        30.21F                  
GRAND JUNCTION MOSUNNY   91  24   9 S5        30.09F                  
RIFLE          SUNNY     92  35  13 SE10      30.13F                  
MONTROSE       CLOUDY    81  46  29 MISG      30.24R                  
CORTEZ         LGT RAIN  65  62  90 NE6       30.28F                  
PAGE, AZ       PTSUNNY   91  48  22 N16G24    30.09R                  
GRAND CANYON   CLOUDY    69  50  50 W6        30.34F                  
KINGMAN        PTSUNNY   95  45  17 SW9       30.04F HX  91           
FLAGSTAFF      CLOUDY    67  60  78 SW6       30.33F                  

$$

REGIONAL REPORTS    NEVADA/IDAHO/WYOMING
  
CITY           SKY/WX    TMP DP  RH WIND       PRES   REMARKS
LAS VEGAS, NV  PTSUNNY  100  52  19 S7        29.88S THUNDER HX  97   
ELY            PTSUNNY   87  23   9 NE5       30.25F                  
ELKO           SUNNY     94  18   6 NE10      30.15F                  
POCATELLO, ID  SUNNY     92  20   7 NW5       30.16F                  
BURLEY         SUNNY     88  25  10 CALM      30.11F                  
EVANSTON, WY   SUNNY     82  25  12 N17       30.33F                  
ROCK SPRINGS   SUNNY     83  21  10 NW9       30.27F                  
KEMMERER       SUNNY    N/A N/A N/A NW13G18   30.35F                  

$$

Return to Home page


Western Regional Climate Center, wrcc@dri.edu